CST,Max TemperatureF,Mean TemperatureF,Min TemperatureF,Max Dew PointF,MeanDew PointF,Min DewpointF,Max Humidity, Mean Humidity, Min Humidity, Max Sea Level PressureIn, Mean Sea Level PressureIn, Min Sea Level PressureIn, Max VisibilityMiles, Mean VisibilityMiles, Min VisibilityMiles, Max Wind SpeedMPH, Mean Wind SpeedMPH, Max Gust SpeedMPH,PrecipitationIn, CloudCover, Events, WindDirDegrees
2012-2-1,60,46,31,28,24,22,73,50,25,30.13,30.08,30.05,10,10,7,8,3,,0.00,1,,216
2012-2-2,55,42,30,29,27,24,76,55,34,30.22,30.18,30.14,10,10,10,14,8,,0.00,0,,80
2012-2-3,48,42,35,37,33,30,92,74,49,30.26,30.21,30.17,10,8,4,20,11,29,0.02,8,Rain,58
2012-2-4,33,32,30,32,31,28,97,93,90,30.35,30.25,30.17,10,3,0,23,14,31,0.21,8,Snow,355
2012-2-5,27,23,19,26,23,18,95,93,89,30.40,30.36,30.32,10,3,0,9,5,,0.00,6,Fog-Snow,308
2012-2-6,34,30,26,28,27,25,94,85,78,30.28,30.19,30.12,10,4,0,9,2,,0.00,4,Fog,208
2012-2-7,32,29,26,29,26,22,90,87,80,30.46,30.35,30.19,10,9,1,21,15,28,0.00,8,Snow,351
2012-2-8,26,22,17,20,16,10,85,75,67,30.49,30.45,30.35,10,10,10,10,5,,0.00,7,,305
2012-2-9,35,28,22,29,25,17,91,83,72,30.31,30.14,30.01,10,8,5,22,7,28,0.00,6,,195
2012-2-10,29,20,11,23,7,-1,81,63,52,30.41,30.23,30.03,10,10,10,26,19,33,0.00,2,,332
2012-2-11,14,6,-3,1,-5,-10,73,62,52,30.74,30.65,30.56,10,10,10,17,10,,0.00,0,,298
2012-2-12,30,14,-1,16,3,-6,83,67,48,30.57,30.38,30.09,10,10,10,14,7,20,0.00,1,,180
2012-2-13,32,28,25,30,26,14,94,87,53,30.01,29.81,29.70,10,5,2,20,12,25,0.00,8,Snow,170
2012-2-14,38,28,18,32,27,16,94,82,71,29.81,29.77,29.75,10,6,0,13,4,,0.00,5,Fog-Snow,195
2012-2-15,37,32,27,33,30,26,96,87,79,30.03,29.89,29.82,10,6,0,14,7,18,0.00,4,Fog,211
2012-2-16,39,31,23,28,24,20,87,72,54,30.25,30.18,30.11,10,10,10,12,7,,0.00,1,,251
2012-2-17,40,34,29,28,26,24,82,70,54,30.19,30.08,29.99,10,10,10,20,10,24,0.00,0,,287
2012-2-18,36,27,18,22,19,14,84,68,52,30.26,30.20,30.14,10,10,10,8,3,,0.00,0,,307
2012-2-19,41,32,23,28,24,19,85,71,48,30.12,30.04,29.95,10,10,10,15,6,20,0.00,0,,147
2012-2-20,41,38,34,40,31,25,95,79,64,29.96,29.78,29.61,10,7,1,21,15,30,0.12,7,Rain,133
2012-2-21,44,38,32,33,30,27,93,76,57,29.82,29.75,29.66,10,10,7,15,11,24,0.00,2,Rain,261
2012-2-22,52,43,34,36,33,29,81,69,52,29.61,29.50,29.40,10,10,10,13,6,16,0.00,4,,250
2012-2-23,43,38,32,41,36,30,94,89,81,29.69,29.41,29.27,10,8,0,31,8,44,0.02,8,Rain-Snow,336
2012-2-24,35,30,23,31,23,17,93,75,58,30.23,30.02,29.79,10,10,4,23,15,32,0.00,3,Snow,305
2012-2-25,35,26,17,25,17,12,80,68,53,30.28,30.14,29.83,10,10,10,22,9,30,0.00,0,,160
2012-2-26,50,39,27,28,25,18,71,53,37,30.26,29.90,29.65,10,10,10,24,16,36,0.00,1,,263
2012-2-27,37,27,17,20,15,12,81,63,40,30.51,30.41,30.28,10,10,7,14,9,17,0.00,0,,316
2012-2-28,52,44,35,51,34,21,95,76,53,30.25,29.88,29.36,10,8,2,30,13,41,0.26,8,Rain-Thunderstorm,136
2012-2-29,44,38,31,37,25,22,79,71,61,29.83,29.59,29.34,10,10,10,38,28,48,0.08,7,,261